Weather Service Report


229 
ASUS41 KBTV 011630
RWRBTV
VERMONT REGIONAL WEATHER ROUNDUP
NATIONAL WEATHER SERVICE BURLINGTON VT
1200 PM EDT FRI AUG 01 2014

NOTE: "FAIR" INDICATES FEW OR NO CLOUDS BELOW 12,000 FEET WITH NO 
SIGNIFICANT WEATHER AND/OR OBSTRUCTIONS TO VISIBILITY.

* THESE REPORTS ARE NOT UNDER NWS QUALITY CONTROL AND/OR DO NOT
  REPORT WEATHER SUCH AS PRECIPITATION AND FOG.

VTZ001>019-011700-
_____VERMONT_____

  
CITY           SKY/WX    TMP DP  RH WIND       PRES   REMARKS
BURLINGTON     MOSUNNY   77  62  59 S10       30.15F                  
MONTPELIER     MOSUNNY   76  62  62 S9        30.23S                  
ST. JOHNSBURY*   N/A     74  60  61 MISG      30.18F                  
LYNDONVILLE*   FAIR      74  59  59 SE6       30.23S                  
MIDDLEBURY*    FAIR      77  64  63 S9        30.17F                  
RUTLAND*       PTSUNNY   75  61  60 S6        30.20S                  
SPRINGFIELD    PTSUNNY   69  63  81 CALM      30.22F                  
HIGHGATE*      FAIR      76  65  67 SW3       30.15S                  
NEWPORT*       FAIR      74  60  60 S9        30.19F                  
BENNINGTON     PTSUNNY   76  64  66 CALM      30.22S                  
GALLUP MILLS*    N/A     57 N/A N/A MISG        N/A                   
UNION VILLAGE*   N/A     75 N/A N/A MISG        N/A                   
MT. MANSFIELD*   N/A     63 N/A N/A W7          N/A                   

_____LAKE CHAMPLAIN_____

  
CITY           SKY/WX    TMP DP  RH WIND       PRES   REMARKS
COLCHESTER RF*   N/A     70  64  83 S15         N/A                   
DIAMOND ISL*     N/A     73  63  68 S10         N/A                   

$$

NYZ007-026>031-035-052-083-011700-
_____NORTHERN NEW YORK_____

  
CITY           SKY/WX    TMP DP  RH WIND       PRES   REMARKS
PLATTSBURGH    MOSUNNY   71  65  81 SE9       30.15S                  
SARANAC LAKE   PTSUNNY   71  56  58 SW9       30.18S                  
MASSENA        MOSUNNY   74  61  63 SW12      30.13F                  
OGDENSBURG*    SUNNY     77  63  61 SW6       30.12F                  
POTSDAM*       SUNNY     77  63  61 W13       30.14S                  
PARISHVILLE*     N/A     72 N/A N/A SW9         N/A                   
WATERTOWN      SUNNY     77  58  51 VRB6      30.14R                  
FT DRUM        SUNNY     76  58  53 SW9       30.15R                  
ALBANY         PTSUNNY   76  64  66 S7        30.20S                  
GLENS FALLS    MOSUNNY   75  64  68 S8        30.18F                  

$$
NHZ002-005-011-011700-
_____NEW HAMPSHIRE_____

  
CITY           SKY/WX    TMP DP  RH WIND       PRES   REMARKS
LEBANON        PTSUNNY   72  63  73 VRB3      30.21S                  
KEENE          MOSUNNY   77  61  57 S3        30.21F                  
MT WASHINGTON  PTSUNNY   50  43  76 W23G32      N/A                   
PLYMOUTH       FAIR      74  64  70 CALM      30.21S                  
WHITEFIELD     MOSUNNY   75  59  57 CALM      30.21S                  

$$

_____REGIONAL QUEBEC LOCATIONS_____

  
CITY           SKY/WX    TMP DP  RH WIND       PRES   REMARKS
MONTREAL       PTSUNNY   72  59  64 S9        30.14S                  
QUEBEC CITY    PTSUNNY   73  61  64 SW9       30.15S                  
SHERBROOKE     SUNNY     75  57  53 SW8       30.18S                  

_____REGIONAL ONTARIO LOCATIONS_____

  
CITY           SKY/WX    TMP DP  RH WIND       PRES   REMARKS
OTTAWA         MOSUNNY   75  63  64 SW9       30.11S                  

______KEY______
VSB  - VISIBILITY IN MILES
WCI  - WIND CHILL INDEX
HX   - HEAT INDEX
$$
NNNN

Return to Home page


Western Regional Climate Center, wrcc@dri.edu